Find Starlink 35429

NORAD ID: 66590 Int'l Des: 2025-270 Owner: SPXS Country: US Constellation: starlink operational
LEOCIRCULAR

当前视图

正在加载3D地球...

关于 Starlink 35429

正在加载描述...

即将过境

Passes for default location (London). Set your location on the main map for personalized predictions.

高度历史

Loading altitude history...

两行轨道根数

1 66590U 25270C 26159.59239888 .00045256 00000-0 16423-2 0 9997
2 66590 43.0026 263.2181 0002619 247.0711 112.9864 15.27612533 31714
Epoch: Jun 8, 2026 • Age: 12 hours

当前状态

高度 486.0 km
速度 7.62 km/s
星下点 -20.53°S, 174.69°E
发射日期 Nov 22, 2025
运行时间 0.5 years
类型 internet

技术详情

分类 Payload
质量 575.00 kg
干质量 530.00 kg
总质量 575.00 kg
长度 0.30 m
直径 4.10 m
跨度 29.00 m
形状 Box + pan
制造商 SPXS
平台类型 Starlink V2MO
阶段状态 In Orbit
所有者/国家 SPXS/US

Most Searched